When you browse on this site, cookies collect data to enhance your experience and personalize the content and advertising you see.
Visit our Privacy Policy to learn more. By continuing to use the site, you agree to this use of cookies and data.
  • In Hungary
  • List of Countries
  • For 7 days
  • Water Temperature
  • Weather Map
  • News
  • Weather Widgets
  • user-avatar
    Login

    Hourly Weather Nowosiedlice

    Today, 8 December, Sunday

    Time Temperature Precipitation Wind Pressure Humidity
    00:00 +5°C° 0 mm 6 mps 745 mmHg 81%
    01:00 +6°C° 0 mm 5 mps 745 mmHg 79%
    02:00 +5°C° 0 mm 5 mps 744 mmHg 80%
    03:00 +5°C° 0 mm 4 mps 744 mmHg 82%
    04:00 +4°C° 0 mm 4 mps 744 mmHg 83%
    05:00 +4°C° 0 mm 4 mps 744 mmHg 83%
    06:00 +4°C° 0 mm 4 mps 744 mmHg 83%
    07:00 +2°C° 0 mm 5 mps 744 mmHg 84%
    08:00 +3°C° 0 mm 5 mps 744 mmHg 80%
    09:00 +4°C° 0 mm 6 mps 743 mmHg 77%
    10:00 +5°C° 0 mm 6 mps 742 mmHg 74%
    11:00 +5°C° 0 mm 7 mps 742 mmHg 72%
    12:00 +5°C° 0 mm 7 mps 741 mmHg 69%
    13:00 +6°C° 0 mm 7 mps 740 mmHg 67%
    14:00 +6°C° 0 mm 7 mps 740 mmHg 68%
    15:00 +7°C° 0 mm 6 mps 739 mmHg 70%
    16:00 +5°C° 0 mm 6 mps 739 mmHg 71%
    17:00 +7°C° 0 mm 6 mps 739 mmHg 72%
    18:00 +7°C° 0 mm 6 mps 739 mmHg 72%
    19:00 +8°C° 0 mm 7 mps 738 mmHg 73%
    20:00 +8°C° 0.3 mm 7 mps 738 mmHg 74%
    21:00 +6°C° 0.3 mm 7 mps 738 mmHg 75%
    22:00 +6°C° 0.3 mm 8 mps 737 mmHg 77%
    23:00 +8°C° 0 mm 7 mps 737 mmHg 77%

    Tomorrow, 9 December, Monday

    Time Temperature Precipitation Wind Pressure Humidity
    00:00 +8°C° 0 mm 7 mps 737 mmHg 77%
    01:00 +8°C° 0 mm 7 mps 737 mmHg 76%
    02:00 +8°C° 0.6 mm 6 mps 737 mmHg 80%
    03:00 +7°C° 0.6 mm 6 mps 736 mmHg 83%
    04:00 +7°C° 0.6 mm 5 mps 736 mmHg 86%
    05:00 +7°C° 0.2 mm 4 mps 736 mmHg 85%
    06:00 +7°C° 0.2 mm 4 mps 736 mmHg 83%
    07:00 +7°C° 0.2 mm 3 mps 737 mmHg 82%
    08:00 +7°C° 0 mm 4 mps 737 mmHg 77%
    09:00 +7°C° 0 mm 5 mps 737 mmHg 72%
    10:00 +7°C° 0 mm 5 mps 737 mmHg 67%
    11:00 +7°C° 0 mm 6 mps 737 mmHg 64%
    12:00 +7°C° 0 mm 6 mps 737 mmHg 62%
    13:00 +8°C° 0 mm 6 mps 737 mmHg 59%
    14:00 +7°C° 0 mm 6 mps 736 mmHg 62%
    15:00 +6°C° 0 mm 5 mps 736 mmHg 66%
    16:00 +5°C° 0 mm 5 mps 736 mmHg 69%
    17:00 +5°C° 0 mm 5 mps 736 mmHg 72%
    18:00 +4°C° 0 mm 6 mps 736 mmHg 74%
    19:00 +4°C° 0 mm 6 mps 736 mmHg 76%
    20:00 +4°C° 0 mm 6 mps 737 mmHg 77%
    21:00 +4°C° 0 mm 6 mps 737 mmHg 78%
    22:00 +4°C° 0 mm 6 mps 738 mmHg 79%
    23:00 +4°C° 0 mm 6 mps 738 mmHg 80%

    Day after tomorrow, 10 December, Tuesday

    Time Temperature Precipitation Wind Pressure Humidity
    00:00 +4°C° 0 mm 6 mps 739 mmHg 80%
    01:00 +4°C° 0 mm 6 mps 740 mmHg 80%
    02:00 +3°C° 0.1 mm 6 mps 741 mmHg 78%
    03:00 +3°C° 0.1 mm 6 mps 741 mmHg 76%
    04:00 +2°C° 0.1 mm 6 mps 742 mmHg 74%
    05:00 +2°C° 0 mm 6 mps 743 mmHg 76%
    06:00 0°C° 0 mm 7 mps 744 mmHg 78%
    07:00 0°C° 0 mm 7 mps 745 mmHg 80%
    08:00 0°C° 0.1 mm 7 mps 745 mmHg 84%
    09:00 0°C° 0.1 mm 7 mps 746 mmHg 88%
    10:00 0°C° 0.1 mm 7 mps 746 mmHg 92%
    11:00 0°C° 0.4 mm 7 mps 747 mmHg 88%
    12:00 0°C° 0.4 mm 7 mps 747 mmHg 84%
    13:00 +1°C° 0.4 mm 8 mps 748 mmHg 81%
    14:00 0°C° 0.1 mm 8 mps 748 mmHg 84%
    15:00 0°C° 0.1 mm 8 mps 749 mmHg 88%
    16:00 0°C° 0.1 mm 8 mps 749 mmHg 91%
    17:00 0°C° 0 mm 7 mps 750 mmHg 85%
    18:00 +1°C° 0 mm 6 mps 751 mmHg 79%
    19:00 +1°C° 0 mm 5 mps 751 mmHg 73%
    20:00 0°C° 0 mm 5 mps 752 mmHg 74%
    21:00 -1°C° 0 mm 4 mps 752 mmHg 75%
    22:00 0°C° 0 mm 3 mps 752 mmHg 76%
    23:00 -1°C° 0 mm 2 mps 752 mmHg 79%

    11 December, Wednesday

    Time Temperature Precipitation Wind Pressure Humidity
    00:00 -2°C° 0 mm 2 mps 752 mmHg 83%
    01:00 -2°C° 0 mm 2 mps 752 mmHg 86%
    02:00 -2°C° 0 mm 2 mps 752 mmHg 85%
    03:00 -2°C° 0 mm 2 mps 751 mmHg 84%
    04:00 -2°C° 0 mm 2 mps 751 mmHg 83%
    05:00 -2°C° 0 mm 2 mps 751 mmHg 82%
    06:00 -2°C° 0 mm 3 mps 750 mmHg 80%
    07:00 -2°C° 0 mm 3 mps 750 mmHg 78%
    08:00 -3°C° 0 mm 4 mps 749 mmHg 75%
    09:00 -2°C° 0 mm 4 mps 749 mmHg 71%
    10:00 -1°C° 0 mm 5 mps 749 mmHg 68%
    11:00 -1°C° 0 mm 5 mps 748 mmHg 64%
    12:00 0°C° 0 mm 5 mps 747 mmHg 60%
    13:00 +1°C° 0 mm 5 mps 747 mmHg 56%
    14:00 0°C° 0 mm 5 mps 746 mmHg 58%
    15:00 0°C° 0 mm 4 mps 745 mmHg 61%
    16:00 -1°C° 0 mm 4 mps 745 mmHg 63%
    17:00 -1°C° 0 mm 4 mps 744 mmHg 65%
    18:00 -2°C° 0 mm 4 mps 744 mmHg 67%
    19:00 -2°C° 0 mm 5 mps 744 mmHg 68%
    20:00 -2°C° 0 mm 5 mps 744 mmHg 69%
    21:00 -2°C° 0 mm 5 mps 743 mmHg 70%
    22:00 -2°C° 0 mm 5 mps 743 mmHg 71%
    23:00 -2°C° 0 mm 5 mps 743 mmHg 71%

    12 December, Thursday

    Time Temperature Precipitation Wind Pressure Humidity
    00:00 -1°C° 0 mm 5 mps 742 mmHg 72%
    01:00 -1°C° 0 mm 5 mps 742 mmHg 72%
    02:00 -1°C° 0.2 mm 5 mps 742 mmHg 76%
    03:00 -1°C° 0.2 mm 5 mps 742 mmHg 79%
    04:00 -1°C° 0.2 mm 5 mps 741 mmHg 83%
    05:00 -1°C° 0 mm 5 mps 742 mmHg 83%
    06:00 -1°C° 0 mm 4 mps 742 mmHg 82%
    07:00 -1°C° 0 mm 4 mps 742 mmHg 82%
    08:00 -1°C° 0 mm 4 mps 742 mmHg 80%
    09:00 0°C° 0 mm 4 mps 742 mmHg 78%
    10:00 +1°C° 0 mm 5 mps 742 mmHg 76%
    11:00 +1°C° 0 mm 5 mps 742 mmHg 74%
    12:00 +2°C° 0 mm 5 mps 742 mmHg 72%
    13:00 +2°C° 0 mm 5 mps 742 mmHg 71%
    14:00 +1°C° 0 mm 4 mps 742 mmHg 74%
    15:00 +1°C° 0 mm 3 mps 743 mmHg 78%
    16:00 +1°C° 0 mm 2 mps 743 mmHg 82%
    17:00 0°C° 0 mm 3 mps 743 mmHg 83%
    18:00 0°C° 0 mm 3 mps 743 mmHg 84%
    19:00 -1°C° 0 mm 3 mps 743 mmHg 84%
    20:00 -1°C° 0 mm 3 mps 743 mmHg 85%
    21:00 -1°C° 0 mm 3 mps 742 mmHg 85%
    22:00 -2°C° 0 mm 4 mps 742 mmHg 86%
    23:00 -2°C° 0 mm 4 mps 741 mmHg 84%

    13 December, Friday

    Time Temperature Precipitation Wind Pressure Humidity
    00:00 -2°C° 0 mm 5 mps 740 mmHg 82%
    01:00 -3°C° 0 mm 6 mps 740 mmHg 81%
    02:00 -3°C° 0 mm 6 mps 738 mmHg 77%
    03:00 -3°C° 0 mm 7 mps 737 mmHg 74%
    04:00 -2°C° 0 mm 7 mps 736 mmHg 71%
    05:00 -2°C° 0 mm 8 mps 735 mmHg 69%
    06:00 -1°C° 0 mm 9 mps 733 mmHg 66%
    07:00 -1°C° 0 mm 9 mps 732 mmHg 64%
    08:00 0°C° 0.1 mm 9 mps 731 mmHg 61%
    09:00 0°C° 0.1 mm 9 mps 730 mmHg 58%
    10:00 +1°C° 0.1 mm 9 mps 729 mmHg 54%
    11:00 +1°C° 0.1 mm 9 mps 728 mmHg 59%
    12:00 +1°C° 0.1 mm 8 mps 727 mmHg 64%
    13:00 +1°C° 0.1 mm 8 mps 727 mmHg 68%
    14:00 +2°C° 0 mm 7 mps 727 mmHg 71%
    15:00 +2°C° 0 mm 7 mps 727 mmHg 73%
    16:00 +1°C° 0 mm 6 mps 727 mmHg 75%
    17:00 +1°C° 0.3 mm 6 mps 728 mmHg 81%
    18:00 +1°C° 0.3 mm 5 mps 728 mmHg 86%
    19:00 +1°C° 0.3 mm 5 mps 729 mmHg 92%
    20:00 +1°C° 0 mm 5 mps 729 mmHg 86%
    21:00 +1°C° 0 mm 6 mps 730 mmHg 81%
    22:00 +1°C° 0 mm 6 mps 730 mmHg 76%
    23:00 +1°C° 0 mm 6 mps 731 mmHg 76%
    Show more